This is the latest recevied weather packets stored in our database for station/object K3FAZ. If no packets are shown the sender has not sent any weather packets the latest 10 day(s).
| Time | Temp. | Humidity | Pressure | Rain* | Wind** | Luminosity | Snow |
|---|---|---|---|---|---|---|---|
| 1777038145 | 21.11° C | 57% | 1013 hPa | 0 mm | - | 470 W/m² | - |
| 1777037841 | 21.11° C | 60% | 1013.3 hPa | 0 mm | - | 200 W/m² | - |
| 1777037536 | 20.56° C | 60% | 1013.3 hPa | 0 mm | - | 463 W/m² | - |
| 1777037233 | 20.56° C | 60% | 1013.3 hPa | 0 mm | - | 180 W/m² | - |
| 1777036930 | 20.56° C | 62% | 1013.3 hPa | 0 mm | - | 171 W/m² | - |
| 1777036627 | 20.56° C | 62% | 1013.4 hPa | 0 mm | - | 190 W/m² | - |
| 1777036327 | 20° C | 69% | 1013.5 hPa | 0 mm | - | 234 W/m² | - |
| 1777036023 | 19.44° C | 69% | 1013.6 hPa | 0 mm | - | 247 W/m² | - |
| 1777035723 | 18.89° C | 72% | 1013.6 hPa | 0 mm | - | 354 W/m² | - |
| 1777035419 | 18.33° C | 74% | 1013.7 hPa | 0 mm | - | 263 W/m² | - |
| 1777035114 | 17.78° C | 73% | 1013.7 hPa | 0 mm | - | 325 W/m² | - |
| 1777034811 | 17.78° C | 74% | 1013.6 hPa | 0 mm | - | 247 W/m² | - |
| 1777034509 | 17.22° C | 78% | 1013.8 hPa | 0 mm | - | 138 W/m² | - |
| 1777034206 | 16.67° C | 80% | 1013.7 hPa | 0 mm | - | 107 W/m² | - |
| 1777033905 | 16.11° C | 82% | 1013.6 hPa | 0 mm | - | 148 W/m² | - |
| 1777033601 | 15° C | 83% | 1013.8 hPa | 0 mm | - | 90 W/m² | - |
| 1777033298 | 14.44° C | 86% | 1013.6 hPa | 0 mm | - | 95 W/m² | - |
| 1777032996 | 13.89° C | 90% | 1013.8 hPa | 0 mm | - | 90 W/m² | - |
| 1777032692 | 13.33° C | 93% | 1013.6 hPa | 0 mm | - | 129 W/m² | - |
| 1777032388 | 12.78° C | 92% | 1013.7 hPa | 0 mm | - | 86 W/m² | - |
| 1777032083 | 12.78° C | 92% | 1013.7 hPa | 0 mm | - | 64 W/m² | - |
| 1777031778 | 12.78° C | 93% | 1013.6 hPa | 0 mm | - | 59 W/m² | - |
| 1777031478 | 12.78° C | 94% | 1013.4 hPa | 0 mm | - | 65 W/m² | - |
| 1777031173 | 12.22° C | 96% | 1013.6 hPa | 0 mm | - | 77 W/m² | - |
| 1777030869 | 12.22° C | 96% | 1013.8 hPa | 0 mm | - | 75 W/m² | - |
* Rain latest hour (hover to see other rain measurements)
** Current wind speed in m/s (hover to see current wind gust speed)